RUK4CF GMTT-EGCC

Flight info

Callsign RUK4CF
Flight time 2h 50m
Altitude 36000
Route LAMA2D LAMAD M143 GALTO N869 BLN DCT MORAL DCT BEXID DCT VTB DCT SIE DCT XERMA DCT ARLUN DCT BUGIX DCT UNGAS DCT DELOG DCT RUSIB DCT NOZHU DCT SHIRI DCT TOJAQ DCT EPACE DCT ACCOP P16 AXCIS AXCI1M
Aircraft B738/M-SDE3FGILRWY/SB1

Departure

Time 2026-04-22 16:29
Airport Tangier Ibn Battuta Airport (GMTT)

Arrival

Time 2026-04-22 19:20
Airport Manchester Airport (EGCC)
Time Latitude Longitude Altitude Speed Heading
2026-04-22 16:02 35.72516 -5.91375 59 ft 0 kts 355°
2026-04-22 16:19 35.72496 -5.91373 56 ft 4 kts 348°
2026-04-22 16:20 35.72471 -5.91363 54 ft 4 kts 332°
2026-04-22 16:20 35.72449 -5.91344 54 ft 4 kts 308°
2026-04-22 16:20 35.72439 -5.91318 52 ft 2 kts 267°
2026-04-22 16:20 35.72439 -5.91316 51 ft 0 kts 266°
2026-04-22 16:23 35.72437 -5.91359 55 ft 7 kts 266°
2026-04-22 16:23 35.72432 -5.91446 59 ft 13 kts 266°
2026-04-22 16:23 35.72426 -5.91568 59 ft 15 kts 276°
2026-04-22 16:24 35.72479 -5.91667 59 ft 14 kts 328°
2026-04-22 16:24 35.72662 -5.91702 54 ft 13 kts 355°
2026-04-22 16:24 35.72750 -5.91709 59 ft 13 kts 357°
2026-04-22 16:25 35.72809 -5.91712 59 ft 12 kts 357°
2026-04-22 16:25 35.72938 -5.91634 56 ft 15 kts 93°
2026-04-22 16:25 35.72924 -5.91484 54 ft 20 kts 97°
2026-04-22 16:26 35.72908 -5.91317 59 ft 19 kts 96°
2026-04-22 16:26 35.72893 -5.91155 59 ft 19 kts 96°
2026-04-22 16:26 35.72878 -5.90996 59 ft 18 kts 96°
2026-04-22 16:26 35.72864 -5.90847 59 ft 17 kts 96°
2026-04-22 16:27 35.72851 -5.90701 56 ft 17 kts 96°
2026-04-22 16:27 35.72838 -5.90561 56 ft 16 kts 96°
2026-04-22 16:27 35.72825 -5.90425 53 ft 16 kts 96°
2026-04-22 16:27 35.72817 -5.90295 55 ft 15 kts 79°
2026-04-22 16:28 35.72874 -5.90201 56 ft 14 kts 30°
2026-04-22 16:28 35.72964 -5.90221 56 ft 14 kts 318°
2026-04-22 16:28 35.72996 -5.90326 55 ft 13 kts 275°
2026-04-22 16:28 35.73006 -5.90441 54 ft 19 kts 277°
2026-04-22 16:29 35.73055 -5.90957 59 ft 106 kts 277°
2026-04-22 16:29 35.73149 -5.92171 275 ft 165 kts 277°
2026-04-22 16:29 35.73295 -5.93709 939 ft 197 kts 280°
2026-04-22 16:29 35.73494 -5.95525 1428 ft 229 kts 279°
2026-04-22 16:30 35.73636 -5.96865 1911 ft 236 kts 279°
2026-04-22 16:30 35.73962 -5.99536 2851 ft 234 kts 279°
2026-04-22 16:30 35.74200 -6.01505 3457 ft 233 kts 270°
2026-04-22 16:30 35.73966 -6.03480 4012 ft 230 kts 248°
2026-04-22 16:31 35.73178 -6.05093 4789 ft 219 kts 225°
2026-04-22 16:31 35.71961 -6.06121 5459 ft 210 kts 204°
2026-04-22 16:31 35.70494 -6.06403 5728 ft 226 kts 168°
2026-04-22 16:31 35.68959 -6.05795 6119 ft 236 kts 159°
2026-04-22 16:32 35.67513 -6.04798 6623 ft 241 kts 146°
2026-04-22 16:32 35.66344 -6.03292 7171 ft 250 kts 127°
2026-04-22 16:32 35.65686 -6.01277 7775 ft 264 kts 100°
2026-04-22 16:32 35.65888 -5.99007 8532 ft 274 kts 74°
2026-04-22 16:33 35.66598 -5.96796 9221 ft 283 kts 71°
2026-04-22 16:33 35.67381 -5.94532 9914 ft 291 kts 69°
2026-04-22 16:33 35.68198 -5.92239 10581 ft 298 kts 69°
2026-04-22 16:33 35.69041 -5.89788 10827 ft 325 kts 70°
2026-04-22 16:34 35.69940 -5.87118 11035 ft 351 kts 68°
2026-04-22 16:34 35.71082 -5.84333 11300 ft 374 kts 62°
2026-04-22 16:34 35.72397 -5.81533 11916 ft 382 kts 61°
2026-04-22 16:34 35.73767 -5.78709 12725 ft 385 kts 60°
2026-04-22 16:35 35.75143 -5.75873 13597 ft 387 kts 61°
2026-04-22 16:35 35.76517 -5.73008 14370 ft 390 kts 61°
2026-04-22 16:35 35.77891 -5.70107 15102 ft 395 kts 61°
2026-04-22 16:35 35.79270 -5.67166 15858 ft 399 kts 61°
2026-04-22 16:36 35.80653 -5.64201 16672 ft 400 kts 60°
2026-04-22 16:36 35.82039 -5.61205 17454 ft 404 kts 60°
2026-04-22 16:36 35.83440 -5.58184 18191 ft 408 kts 60°
2026-04-22 16:36 35.84851 -5.55135 18835 ft 412 kts 60°
2026-04-22 16:37 35.86295 -5.52068 19536 ft 414 kts 59°
2026-04-22 16:37 35.87731 -5.48984 20213 ft 417 kts 60°
2026-04-22 16:37 35.89163 -5.45866 20895 ft 419 kts 60°
2026-04-22 16:37 35.90603 -5.42719 21575 ft 421 kts 60°
2026-04-22 16:38 35.92047 -5.39565 22227 ft 424 kts 60°
2026-04-22 16:38 35.93503 -5.36387 22836 ft 427 kts 60°
2026-04-22 16:38 35.94974 -5.33182 23435 ft 431 kts 60°
2026-04-22 16:38 35.96444 -5.29954 24020 ft 431 kts 59°
2026-04-22 16:39 35.97912 -5.26766 24512 ft 434 kts 59°
2026-04-22 16:39 35.99431 -5.23462 24962 ft 439 kts 59°
2026-04-22 16:39 36.00920 -5.20216 25400 ft 443 kts 59°
2026-04-22 16:39 36.02441 -5.16892 25861 ft 446 kts 59°
2026-04-22 16:40 36.03970 -5.13544 26316 ft 449 kts 59°
2026-04-22 16:40 36.05509 -5.10172 26743 ft 452 kts 59°
2026-04-22 16:40 36.08614 -5.03357 27597 ft 459 kts 59°
2026-04-22 16:41 36.10184 -4.99908 28006 ft 462 kts 59°
2026-04-22 16:41 36.11761 -4.96440 28428 ft 465 kts 59°
2026-04-22 16:41 36.13406 -4.92984 28846 ft 466 kts 53°
2026-04-22 16:41 36.15408 -4.89836 29278 ft 465 kts 44°
2026-04-22 16:42 36.17770 -4.87105 29654 ft 465 kts 35°
2026-04-22 16:42 36.20441 -4.84855 30013 ft 465 kts 29°
2026-04-22 16:42 36.23199 -4.82742 30332 ft 467 kts 28°
2026-04-22 16:42 36.25971 -4.80635 30713 ft 467 kts 28°
2026-04-22 16:43 36.28730 -4.78526 31195 ft 465 kts 28°
2026-04-22 16:43 36.31474 -4.76409 31696 ft 463 kts 28°
2026-04-22 16:43 36.34196 -4.74290 32140 ft 462 kts 28°
2026-04-22 16:43 36.36913 -4.72165 32535 ft 462 kts 28°
2026-04-22 16:44 36.39628 -4.70033 32951 ft 461 kts 28°
2026-04-22 16:44 36.42332 -4.67907 33389 ft 460 kts 28°
2026-04-22 16:44 36.45034 -4.65780 33807 ft 459 kts 28°
2026-04-22 16:44 36.47733 -4.63654 34172 ft 458 kts 28°
2026-04-22 16:45 36.50420 -4.61536 34538 ft 457 kts 28°
2026-04-22 16:45 36.53102 -4.59421 34910 ft 456 kts 28°
2026-04-22 16:45 36.55776 -4.57311 35268 ft 455 kts 28°
2026-04-22 16:45 36.58436 -4.55210 35725 ft 451 kts 28°
2026-04-22 16:46 36.61086 -4.53115 35935 ft 453 kts 28°
2026-04-22 16:46 36.66440 -4.48881 35943 ft 456 kts 28°
2026-04-22 16:47 36.71754 -4.44666 35927 ft 449 kts 28°
2026-04-22 16:47 36.77018 -4.40486 35952 ft 449 kts 28°
2026-04-22 16:48 36.82337 -4.36389 35932 ft 447 kts 22°
2026-04-22 16:48 36.87995 -4.33227 35950 ft 445 kts 19°
2026-04-22 16:49 36.93700 -4.30211 35953 ft 446 kts 19°
2026-04-22 16:49 36.99372 -4.27164 35951 ft 447 kts 19°
2026-04-22 16:50 37.05072 -4.24034 35954 ft 448 kts 21°
2026-04-22 16:50 37.10749 -4.20797 35942 ft 448 kts 19°
2026-04-22 16:51 37.16508 -4.17757 35960 ft 449 kts 19°
2026-04-22 16:51 37.22239 -4.14612 35952 ft 449 kts 20°
2026-04-22 16:52 37.27954 -4.11443 35940 ft 449 kts 20°
2026-04-22 16:52 37.33659 -4.08277 35941 ft 448 kts 20°
2026-04-22 16:53 37.39348 -4.05121 35945 ft 447 kts 20°
2026-04-22 16:53 37.45029 -4.01966 35955 ft 447 kts 20°
2026-04-22 16:54 37.50727 -3.98798 35955 ft 447 kts 20°
2026-04-22 16:54 37.56416 -3.95626 35955 ft 447 kts 20°
2026-04-22 16:55 37.62101 -3.92454 35955 ft 447 kts 20°
2026-04-22 16:55 37.67788 -3.89275 35964 ft 447 kts 20°
2026-04-22 16:56 37.73478 -3.86090 35952 ft 448 kts 20°
2026-04-22 16:56 37.79174 -3.82895 35948 ft 448 kts 20°
2026-04-22 16:57 37.84872 -3.79693 35961 ft 448 kts 20°
2026-04-22 16:57 37.90562 -3.76490 35962 ft 447 kts 21°
2026-04-22 16:58 37.95277 -3.73832 35953 ft 447 kts 21°
2026-04-22 16:58 38.01918 -3.70082 35948 ft 446 kts 21°
2026-04-22 16:59 38.07576 -3.66880 35953 ft 445 kts 21°
2026-04-22 16:59 38.13205 -3.63710 35951 ft 444 kts 18°
2026-04-22 17:00 38.19152 -3.61967 35960 ft 437 kts
2026-04-22 17:00 38.28235 -3.61183 35962 ft 437 kts
2026-04-22 17:01 38.34302 -3.60645 35963 ft 438 kts
2026-04-22 17:01 38.40381 -3.60066 35961 ft 438 kts
2026-04-22 17:02 38.46469 -3.59472 35955 ft 439 kts
2026-04-22 17:02 38.52556 -3.58874 35965 ft 439 kts
2026-04-22 17:03 38.58640 -3.58278 35957 ft 439 kts
2026-04-22 17:03 38.64732 -3.57680 35955 ft 439 kts
2026-04-22 17:04 38.70816 -3.57082 35957 ft 438 kts
2026-04-22 17:04 38.76891 -3.56484 35962 ft 438 kts
2026-04-22 17:05 38.82962 -3.55886 35961 ft 438 kts
2026-04-22 17:05 38.89037 -3.55286 35958 ft 438 kts
2026-04-22 17:06 38.95111 -3.54685 35952 ft 438 kts
2026-04-22 17:06 39.01187 -3.54083 35956 ft 438 kts
2026-04-22 17:07 39.07264 -3.53483 35964 ft 438 kts
2026-04-22 17:07 39.13345 -3.52884 35961 ft 438 kts
2026-04-22 17:08 39.19427 -3.52282 35956 ft 438 kts
2026-04-22 17:08 39.25509 -3.51679 35964 ft 438 kts
2026-04-22 17:09 39.31552 -3.51079 35970 ft 439 kts
2026-04-22 17:09 39.37641 -3.50474 35970 ft 439 kts
2026-04-22 17:10 39.43746 -3.49865 35974 ft 440 kts
2026-04-22 17:10 39.49841 -3.49257 35963 ft 440 kts
2026-04-22 17:11 39.55952 -3.48645 35975 ft 440 kts
2026-04-22 17:11 39.62066 -3.48030 35970 ft 441 kts
2026-04-22 17:12 39.67194 -3.47509 35977 ft 441 kts
2026-04-22 17:12 39.73269 -3.46892 35972 ft 441 kts
2026-04-22 17:13 39.79404 -3.46407 35972 ft 439 kts 355°
2026-04-22 17:13 39.85525 -3.46959 35971 ft 438 kts 352°
2026-04-22 17:14 39.91593 -3.47685 35986 ft 438 kts 352°
2026-04-22 17:14 39.97626 -3.48360 35984 ft 438 kts 352°
2026-04-22 17:15 40.03708 -3.48993 35987 ft 439 kts 353°
2026-04-22 17:15 40.09792 -3.49611 35996 ft 439 kts 353°
2026-04-22 17:16 40.15876 -3.50228 36005 ft 439 kts 353°
2026-04-22 17:16 40.21974 -3.50849 36017 ft 439 kts 353°
2026-04-22 17:17 40.28067 -3.51472 36016 ft 439 kts 353°
2026-04-22 17:17 40.34154 -3.52094 36017 ft 440 kts 353°
2026-04-22 17:18 40.40259 -3.52720 35990 ft 440 kts 352°
2026-04-22 17:18 40.46350 -3.53346 35997 ft 439 kts 353°
2026-04-22 17:19 40.58549 -3.54603 35994 ft 440 kts 353°
2026-04-22 17:20 40.70764 -3.55866 35993 ft 440 kts 353°
2026-04-22 17:21 40.79917 -3.56815 35995 ft 440 kts 353°
2026-04-22 17:22 40.89067 -3.57767 35999 ft 440 kts 353°
2026-04-22 17:23 40.98229 -3.58722 35993 ft 440 kts 352°
2026-04-22 17:23 41.07342 -3.59676 35993 ft 440 kts 352°
2026-04-22 17:24 41.13442 -3.60315 35996 ft 440 kts 352°
2026-04-22 17:24 41.19567 -3.60728 35999 ft 442 kts 356°
2026-04-22 17:25 41.25722 -3.60823 35995 ft 442 kts 356°
2026-04-22 17:25 41.31874 -3.60930 35996 ft 442 kts 356°
2026-04-22 17:26 41.38037 -3.61079 35989 ft 443 kts 356°
2026-04-22 17:26 41.44189 -3.61240 35992 ft 443 kts 356°
2026-04-22 17:27 41.50349 -3.61399 35989 ft 443 kts 356°
2026-04-22 17:27 41.56520 -3.61445 35992 ft 443 kts 357°
2026-04-22 17:28 41.62696 -3.61418 35989 ft 444 kts 357°
2026-04-22 17:28 41.68828 -3.61402 35993 ft 444 kts 357°
2026-04-22 17:29 41.75044 -3.61399 35997 ft 444 kts 357°
2026-04-22 17:29 41.81179 -3.61400 35998 ft 444 kts 357°
2026-04-22 17:30 41.87364 -3.61400 35994 ft 444 kts 357°
2026-04-22 17:30 41.93541 -3.61400 36008 ft 444 kts 357°
2026-04-22 17:31 41.99723 -3.61400 36013 ft 444 kts 357°
2026-04-22 17:31 42.05901 -3.61512 36001 ft 443 kts 354°
2026-04-22 17:32 42.12056 -3.61951 36007 ft 443 kts 353°
2026-04-22 17:32 42.18210 -3.62392 36008 ft 443 kts 354°
2026-04-22 17:33 42.24373 -3.62787 36045 ft 443 kts 354°
2026-04-22 17:33 42.30530 -3.63169 36048 ft 443 kts 354°
2026-04-22 17:34 42.36684 -3.63596 36057 ft 442 kts 351°
2026-04-22 17:34 42.42762 -3.64723 36047 ft 440 kts 347°
2026-04-22 17:35 42.48802 -3.66057 36046 ft 440 kts 347°
2026-04-22 17:35 42.54848 -3.67316 36042 ft 440 kts 348°
2026-04-22 17:36 42.60898 -3.68531 36046 ft 440 kts 348°
2026-04-22 17:36 42.66957 -3.69748 36049 ft 440 kts 348°
2026-04-22 17:37 42.73020 -3.70881 36056 ft 441 kts 349°
2026-04-22 17:37 42.79112 -3.71895 36057 ft 441 kts 349°
2026-04-22 17:38 42.85206 -3.72913 36073 ft 441 kts 349°
2026-04-22 17:38 42.91284 -3.73943 36077 ft 440 kts 349°
2026-04-22 17:39 42.97374 -3.74985 36078 ft 441 kts 349°
2026-04-22 17:40 43.06454 -3.76548 36085 ft 441 kts 349°
2026-04-22 17:40 43.12544 -3.77598 36093 ft 441 kts 349°
2026-04-22 17:41 43.18637 -3.78651 36102 ft 441 kts 349°
2026-04-22 17:41 43.24728 -3.79706 36105 ft 441 kts 349°
2026-04-22 17:42 43.30819 -3.80763 36102 ft 441 kts 349°
2026-04-22 17:42 43.35876 -3.81641 36107 ft 440 kts 349°
2026-04-22 17:43 43.42982 -3.82879 36092 ft 440 kts 349°
2026-04-22 17:43 43.49054 -3.83939 36107 ft 440 kts 349°
2026-04-22 17:44 43.55129 -3.85002 36107 ft 440 kts 349°
2026-04-22 17:44 43.61209 -3.86068 36092 ft 440 kts 349°
2026-04-22 17:45 43.67288 -3.87135 36089 ft 441 kts 349°
2026-04-22 17:45 43.73372 -3.88206 36087 ft 441 kts 349°
2026-04-22 17:46 43.79462 -3.89280 36093 ft 441 kts 349°
2026-04-22 17:46 43.85554 -3.90356 36079 ft 442 kts 349°
2026-04-22 17:47 43.91654 -3.91437 36078 ft 442 kts 349°
2026-04-22 17:47 43.97747 -3.92518 36088 ft 442 kts 349°
2026-04-22 17:48 44.02816 -3.93419 36075 ft 442 kts 349°
2026-04-22 17:48 44.09941 -3.94688 36076 ft 441 kts 349°
2026-04-22 17:49 44.16024 -3.95774 36084 ft 441 kts 348°
2026-04-22 17:49 44.22110 -3.96863 36071 ft 440 kts 348°
2026-04-22 17:50 44.28139 -3.97944 36069 ft 440 kts 348°
2026-04-22 17:50 44.34226 -3.98890 36066 ft 442 kts 355°
2026-04-22 17:51 44.40393 -3.98758 36065 ft 444 kts 358°
2026-04-22 17:51 44.46572 -3.98414 36066 ft 444 kts 358°
2026-04-22 17:52 44.52745 -3.98117 36065 ft 444 kts 358°
2026-04-22 17:52 44.58910 -3.97873 36068 ft 444 kts 357°
2026-04-22 17:53 44.65099 -3.97651 36062 ft 444 kts 357°
2026-04-22 17:53 44.71280 -3.97433 36063 ft 445 kts 357°
2026-04-22 17:54 44.77467 -3.97212 36062 ft 445 kts 357°
2026-04-22 17:54 44.83652 -3.96990 36062 ft 445 kts 357°
2026-04-22 17:55 44.88798 -3.96805 36062 ft 445 kts 357°
2026-04-22 17:55 44.96039 -3.96543 36064 ft 445 kts 357°
2026-04-22 17:56 45.02234 -3.96319 36059 ft 445 kts 357°
2026-04-22 17:56 45.08432 -3.96094 36060 ft 445 kts 357°
2026-04-22 17:57 45.14628 -3.95869 36069 ft 445 kts 357°
2026-04-22 17:57 45.20820 -3.95643 36058 ft 445 kts 357°
2026-04-22 17:58 45.27017 -3.95417 36060 ft 445 kts 357°
2026-04-22 17:58 45.33209 -3.95190 36067 ft 445 kts 357°
2026-04-22 17:59 45.38352 -3.95002 36056 ft 445 kts 357°
2026-04-22 17:59 45.44533 -3.94775 36057 ft 444 kts 357°
2026-04-22 18:00 45.50714 -3.94547 36056 ft 444 kts 357°
2026-04-22 18:00 45.56890 -3.94320 36061 ft 444 kts 356°
2026-04-22 18:01 45.63052 -3.94091 36053 ft 443 kts 357°
2026-04-22 18:01 45.69216 -3.93863 36054 ft 443 kts 356°
2026-04-22 18:02 45.75370 -3.93634 36060 ft 442 kts 356°
2026-04-22 18:02 45.81515 -3.93405 36056 ft 441 kts 356°
2026-04-22 18:03 45.87655 -3.93176 36053 ft 440 kts 356°
2026-04-22 18:03 45.93773 -3.92947 36055 ft 440 kts 356°
2026-04-22 18:04 45.99887 -3.92718 36055 ft 439 kts 356°
2026-04-22 18:04 46.05979 -3.92489 36050 ft 438 kts 356°
2026-04-22 18:05 46.12067 -3.92260 36057 ft 437 kts 356°
2026-04-22 18:05 46.18147 -3.92031 36058 ft 437 kts 356°
2026-04-22 18:06 46.24224 -3.91802 36046 ft 437 kts 356°
2026-04-22 18:06 46.30262 -3.91573 36073 ft 437 kts 356°
2026-04-22 18:07 46.36382 -3.91341 36064 ft 437 kts 356°
2026-04-22 18:07 46.42426 -3.91111 36056 ft 438 kts 356°
2026-04-22 18:08 46.48517 -3.90879 36060 ft 438 kts 356°
2026-04-22 18:08 46.54599 -3.90646 36065 ft 438 kts 356°
2026-04-22 18:09 46.60692 -3.90413 36059 ft 438 kts 356°
2026-04-22 18:09 46.66777 -3.90179 36062 ft 438 kts 356°
2026-04-22 18:10 46.72871 -3.89945 36060 ft 438 kts 356°
2026-04-22 18:10 46.78961 -3.89710 36058 ft 438 kts 356°
2026-04-22 18:11 46.85047 -3.89474 36060 ft 438 kts 356°
2026-04-22 18:11 46.91141 -3.89238 36077 ft 438 kts 356°
2026-04-22 18:12 46.97233 -3.89002 36058 ft 438 kts 356°
2026-04-22 18:12 47.02290 -3.88805 36060 ft 438 kts 356°
2026-04-22 18:13 47.09408 -3.88527 36068 ft 438 kts 356°
2026-04-22 18:13 47.15493 -3.88289 36069 ft 437 kts 356°
2026-04-22 18:14 47.21581 -3.88051 36067 ft 437 kts 356°
2026-04-22 18:14 47.27656 -3.87812 36073 ft 437 kts 356°
2026-04-22 18:15 47.33736 -3.87572 36085 ft 437 kts 356°
2026-04-22 18:15 47.39805 -3.87333 36075 ft 437 kts 356°
2026-04-22 18:16 47.45882 -3.87093 36078 ft 437 kts 356°
2026-04-22 18:16 47.51957 -3.86852 36085 ft 437 kts 356°
2026-04-22 18:17 47.57991 -3.86613 36091 ft 437 kts 356°
2026-04-22 18:17 47.64074 -3.86371 36084 ft 437 kts 356°
2026-04-22 18:18 47.70166 -3.86127 36089 ft 438 kts 356°
2026-04-22 18:18 47.76252 -3.85884 36099 ft 438 kts 356°
2026-04-22 18:19 47.82352 -3.85639 36096 ft 438 kts 356°
2026-04-22 18:19 47.88453 -3.85394 36098 ft 439 kts 356°
2026-04-22 18:20 47.94557 -3.85148 36107 ft 439 kts 356°
2026-04-22 18:20 48.00669 -3.84901 36105 ft 440 kts 356°
2026-04-22 18:21 48.06786 -3.84654 36106 ft 440 kts 356°
2026-04-22 18:21 48.12905 -3.84405 36102 ft 440 kts 356°
2026-04-22 18:22 48.19023 -3.84156 36114 ft 440 kts 356°
2026-04-22 18:22 48.25138 -3.83907 36104 ft 440 kts 356°
2026-04-22 18:23 48.31258 -3.83656 36106 ft 440 kts 356°
2026-04-22 18:23 48.37369 -3.83406 36111 ft 439 kts 356°
2026-04-22 18:24 48.46538 -3.83029 36112 ft 439 kts 356°
2026-04-22 18:25 48.55707 -3.82651 36132 ft 439 kts 356°
2026-04-22 18:25 48.61822 -3.82398 36136 ft 440 kts 356°
2026-04-22 18:26 48.70973 -3.82019 36129 ft 441 kts 356°
2026-04-22 18:26 48.77103 -3.81763 36130 ft 441 kts 356°
2026-04-22 18:27 48.83240 -3.81507 36132 ft 441 kts 356°
2026-04-22 18:27 48.89377 -3.81250 36135 ft 441 kts 356°
2026-04-22 18:28 48.95518 -3.80992 36137 ft 441 kts 357°
2026-04-22 18:28 49.01654 -3.80696 36143 ft 442 kts 357°
2026-04-22 18:29 49.07803 -3.80312 36142 ft 442 kts 358°
2026-04-22 18:29 49.13955 -3.79922 36147 ft 442 kts 358°
2026-04-22 18:30 49.23182 -3.79354 36153 ft 443 kts 358°
2026-04-22 18:31 49.29341 -3.78978 36161 ft 443 kts 358°
2026-04-22 18:31 49.35506 -3.78601 36156 ft 443 kts 358°
2026-04-22 18:32 49.41672 -3.78222 36160 ft 444 kts 358°
2026-04-22 18:32 49.47837 -3.77842 36172 ft 444 kts 358°
2026-04-22 18:33 49.53973 -3.77464 36165 ft 444 kts 358°
2026-04-22 18:33 49.60137 -3.77082 36172 ft 444 kts 358°
2026-04-22 18:34 49.66305 -3.76699 36178 ft 444 kts 358°
2026-04-22 18:34 49.72470 -3.76248 36182 ft 444 kts
2026-04-22 18:35 49.78624 -3.75454 36189 ft 443 kts
2026-04-22 18:35 49.84764 -3.74694 36175 ft 441 kts 358°
2026-04-22 18:36 49.90898 -3.74117 36188 ft 442 kts
2026-04-22 18:36 49.97014 -3.73302 36180 ft 442 kts
2026-04-22 18:37 50.03122 -3.72453 36191 ft 440 kts
2026-04-22 18:37 50.08193 -3.71918 36193 ft 439 kts 360°
2026-04-22 18:38 50.15328 -3.71023 36202 ft 439 kts
2026-04-22 18:38 50.21434 -3.70359 36201 ft 441 kts 359°
2026-04-22 18:39 50.30596 -3.69226 36220 ft 441 kts
2026-04-22 18:39 50.36715 -3.68444 36231 ft 441 kts 359°
2026-04-22 18:40 50.42793 -3.67682 36236 ft 441 kts
2026-04-22 18:40 50.48923 -3.66518 36233 ft 440 kts
2026-04-22 18:41 50.54952 -3.65301 36228 ft 439 kts
2026-04-22 18:41 50.61006 -3.64174 36244 ft 437 kts
2026-04-22 18:42 50.67049 -3.63077 36243 ft 437 kts
2026-04-22 18:42 50.73075 -3.61902 36240 ft 437 kts
2026-04-22 18:43 50.79101 -3.60721 36238 ft 436 kts
2026-04-22 18:43 50.85129 -3.59548 36238 ft 436 kts
2026-04-22 18:44 50.91151 -3.58387 36237 ft 436 kts
2026-04-22 18:44 50.97177 -3.57195 36243 ft 436 kts
2026-04-22 18:45 51.03202 -3.56044 36248 ft 436 kts
2026-04-22 18:45 51.09233 -3.54871 36242 ft 437 kts
2026-04-22 18:46 51.15257 -3.53637 36248 ft 437 kts
2026-04-22 18:46 51.21300 -3.52572 36263 ft 437 kts
2026-04-22 18:47 51.26306 -3.51521 36247 ft 437 kts
2026-04-22 18:47 51.32376 -3.50271 36240 ft 437 kts
2026-04-22 18:48 51.38418 -3.49130 36267 ft 437 kts
2026-04-22 18:48 51.44462 -3.47917 36282 ft 437 kts
2026-04-22 18:49 51.50454 -3.46717 36265 ft 437 kts
2026-04-22 18:49 51.56459 -3.45561 36017 ft 431 kts
2026-04-22 18:50 51.59407 -3.44974 35741 ft 422 kts
2026-04-22 18:50 51.62303 -3.44385 35356 ft 417 kts
2026-04-22 18:50 51.65167 -3.43839 34997 ft 413 kts
2026-04-22 18:50 51.68011 -3.43356 34635 ft 409 kts
2026-04-22 18:51 51.70830 -3.42796 34265 ft 406 kts
2026-04-22 18:51 51.73622 -3.42212 33900 ft 403 kts
2026-04-22 18:51 51.76403 -3.41634 33515 ft 400 kts
2026-04-22 18:51 51.79129 -3.40990 33150 ft 396 kts
2026-04-22 18:52 51.81849 -3.40454 32806 ft 391 kts
2026-04-22 18:52 51.84543 -3.40001 32457 ft 387 kts
2026-04-22 18:52 51.87204 -3.39434 32108 ft 384 kts
2026-04-22 18:52 51.89839 -3.38932 31755 ft 378 kts
2026-04-22 18:53 51.92415 -3.38396 31401 ft 368 kts
2026-04-22 18:53 51.94918 -3.38050 31081 ft 356 kts 359°
2026-04-22 18:53 51.97404 -3.37864 30591 ft 364 kts 359°
2026-04-22 18:53 51.99991 -3.37729 30090 ft 378 kts
2026-04-22 18:54 52.02653 -3.37530 29546 ft 385 kts
2026-04-22 18:54 52.05333 -3.37312 28982 ft 384 kts
2026-04-22 18:54 52.07988 -3.37159 28423 ft 380 kts
2026-04-22 18:54 52.10621 -3.36958 27887 ft 377 kts 358°
2026-04-22 18:55 52.13238 -3.36726 27351 ft 375 kts
2026-04-22 18:55 52.15834 -3.36475 26847 ft 372 kts 359°
2026-04-22 18:55 52.18413 -3.36407 26335 ft 371 kts 359°
2026-04-22 18:55 52.20984 -3.36202 25844 ft 369 kts
2026-04-22 18:56 52.23548 -3.36019 25376 ft 368 kts 359°
2026-04-22 18:56 52.26097 -3.35832 24897 ft 368 kts
2026-04-22 18:56 52.28652 -3.35632 24430 ft 367 kts
2026-04-22 18:56 52.31199 -3.35401 23969 ft 365 kts
2026-04-22 18:57 52.33728 -3.35247 23529 ft 362 kts
2026-04-22 18:57 52.36227 -3.35109 23149 ft 357 kts
2026-04-22 18:57 52.38700 -3.34962 22675 ft 355 kts
2026-04-22 18:57 52.41173 -3.34758 22233 ft 355 kts
2026-04-22 18:58 52.43640 -3.34596 21797 ft 354 kts
2026-04-22 18:58 52.46098 -3.34438 21358 ft 353 kts
2026-04-22 18:58 52.48517 -3.34256 20940 ft 351 kts
2026-04-22 18:58 52.50947 -3.34062 20509 ft 347 kts
2026-04-22 18:59 52.53382 -3.33865 20090 ft 345 kts
2026-04-22 18:59 52.55744 -3.33668 19684 ft 344 kts
2026-04-22 18:59 52.58155 -3.33486 19273 ft 342 kts
2026-04-22 18:59 52.60523 -3.33288 18870 ft 340 kts
2026-04-22 19:00 52.62090 -3.33124 18603 ft 339 kts
2026-04-22 19:00 52.65109 -3.31986 18007 ft 336 kts 22°
2026-04-22 19:00 52.67283 -3.30645 17721 ft 333 kts 21°
2026-04-22 19:00 52.69441 -3.29309 17385 ft 330 kts 22°
2026-04-22 19:01 52.71585 -3.27973 17040 ft 328 kts 23°
2026-04-22 19:01 52.73730 -3.26739 16712 ft 326 kts 22°
2026-04-22 19:01 52.75851 -3.25455 16375 ft 324 kts 22°
2026-04-22 19:01 52.77981 -3.24173 16067 ft 329 kts 22°
2026-04-22 19:02 52.80144 -3.22860 15756 ft 332 kts 22°
2026-04-22 19:02 52.82324 -3.21564 15444 ft 334 kts 22°
2026-04-22 19:02 52.84514 -3.20296 15135 ft 335 kts 21°
2026-04-22 19:02 52.86709 -3.18973 14822 ft 333 kts 22°
2026-04-22 19:03 52.88866 -3.17661 14517 ft 330 kts 20°
2026-04-22 19:03 52.91134 -3.17077 14217 ft 329 kts
2026-04-22 19:03 52.93409 -3.16926 13877 ft 326 kts
2026-04-22 19:03 52.95672 -3.16855 13528 ft 324 kts
2026-04-22 19:04 52.97913 -3.16735 13194 ft 321 kts
2026-04-22 19:04 53.00132 -3.16587 12836 ft 319 kts
2026-04-22 19:04 53.02347 -3.16390 12513 ft 317 kts
2026-04-22 19:04 53.04545 -3.16186 12184 ft 315 kts
2026-04-22 19:05 53.06726 -3.16027 11856 ft 313 kts
2026-04-22 19:05 53.08899 -3.15837 11532 ft 312 kts
2026-04-22 19:05 53.11056 -3.15663 11205 ft 310 kts
2026-04-22 19:05 53.13209 -3.15503 10901 ft 308 kts
2026-04-22 19:06 53.15339 -3.15337 10630 ft 306 kts
2026-04-22 19:06 53.17455 -3.15184 10364 ft 304 kts
2026-04-22 19:06 53.19569 -3.15006 10084 ft 304 kts
2026-04-22 19:07 53.23823 -3.14672 9520 ft 306 kts
2026-04-22 19:07 53.25940 -3.14505 9257 ft 305 kts
2026-04-22 19:07 53.28053 -3.14338 8995 ft 304 kts
2026-04-22 19:07 53.30151 -3.14171 8763 ft 302 kts
2026-04-22 19:08 53.32253 -3.14003 8555 ft 299 kts
2026-04-22 19:08 53.34324 -3.13816 8321 ft 297 kts
2026-04-22 19:08 53.36202 -3.12656 8042 ft 284 kts 43°
2026-04-22 19:08 53.37357 -3.10152 7826 ft 267 kts 70°
2026-04-22 19:09 53.37814 -3.07215 7580 ft 258 kts 89°
2026-04-22 19:09 53.37760 -3.04274 7333 ft 251 kts 103°
2026-04-22 19:09 53.37420 -3.02449 7168 ft 247 kts 116°
2026-04-22 19:09 53.36395 -2.99072 6866 ft 242 kts 120°
2026-04-22 19:10 53.35598 -2.96587 6641 ft 238 kts 120°
2026-04-22 19:10 53.34830 -2.94201 6481 ft 227 kts 120°
2026-04-22 19:10 53.34097 -2.91919 6261 ft 220 kts 120°
2026-04-22 19:10 53.33380 -2.89683 6061 ft 217 kts 120°
2026-04-22 19:11 53.32666 -2.87454 5839 ft 216 kts 120°
2026-04-22 19:11 53.31961 -2.85252 5639 ft 215 kts 120°
2026-04-22 19:11 53.31258 -2.83057 5433 ft 214 kts 120°
2026-04-22 19:11 53.30561 -2.80876 5203 ft 213 kts 120°
2026-04-22 19:12 53.29860 -2.78685 5015 ft 212 kts 120°
2026-04-22 19:12 53.29168 -2.76524 4807 ft 211 kts 120°
2026-04-22 19:12 53.28476 -2.74364 4599 ft 210 kts 120°
2026-04-22 19:12 53.27793 -2.72232 4378 ft 208 kts 120°
2026-04-22 19:13 53.27115 -2.70117 4188 ft 206 kts 120°
2026-04-22 19:13 53.26438 -2.68006 3987 ft 205 kts 120°
2026-04-22 19:13 53.25765 -2.65905 3788 ft 205 kts 120°
2026-04-22 19:13 53.25096 -2.63823 3580 ft 203 kts 119°
2026-04-22 19:14 53.24427 -2.61747 3372 ft 202 kts 119°
2026-04-22 19:14 53.23764 -2.59691 3162 ft 200 kts 118°
2026-04-22 19:14 53.23113 -2.57670 3052 ft 195 kts 118°
2026-04-22 19:14 53.22505 -2.55749 2999 ft 179 kts 114°
2026-04-22 19:15 53.22351 -2.54440 2980 ft 172 kts 86°
2026-04-22 19:15 53.23215 -2.52210 3007 ft 174 kts 59°
2026-04-22 19:15 53.23822 -2.50549 3008 ft 166 kts 68°
2026-04-22 19:15 53.24510 -2.48954 2937 ft 172 kts 60°
2026-04-22 19:16 53.25268 -2.47395 2727 ft 172 kts 59°
2026-04-22 19:16 53.26023 -2.45873 2497 ft 168 kts 58°
2026-04-22 19:16 53.26730 -2.44413 2272 ft 156 kts 59°
2026-04-22 19:16 53.27382 -2.43065 2071 ft 143 kts 59°
2026-04-22 19:17 53.27985 -2.41809 1900 ft 138 kts 59°
2026-04-22 19:17 53.28579 -2.40574 1694 ft 137 kts 58°
2026-04-22 19:17 53.29181 -2.39332 1497 ft 134 kts 57°
2026-04-22 19:17 53.29753 -2.38153 1316 ft 125 kts 58°
2026-04-22 19:18 53.30289 -2.37005 1166 ft 128 kts 56°
2026-04-22 19:18 53.30877 -2.35853 1013 ft 133 kts 53°
2026-04-22 19:18 53.31449 -2.34654 821 ft 129 kts 52°
2026-04-22 19:18 53.32024 -2.33501 668 ft 127 kts 53°
2026-04-22 19:19 53.32591 -2.32327 470 ft 135 kts 52°
2026-04-22 19:19 53.33175 -2.31116 301 ft 130 kts 53°
2026-04-22 19:19 53.33740 -2.29946 237 ft 121 kts 54°
2026-04-22 19:19 53.34195 -2.29004 229 ft 88 kts 51°
2026-04-22 19:20 53.34486 -2.28399 224 ft 43 kts 51°
2026-04-22 19:20 53.34623 -2.28215 230 ft 8 kts 26°
2026-04-22 19:20 53.34678 -2.28182 231 ft 9 kts 22°
2026-04-22 19:20 53.34733 -2.28146 230 ft 8 kts 21°
2026-04-22 19:21 53.34788 -2.28111 231 ft 9 kts 21°
2026-04-22 19:21 53.34862 -2.28061 228 ft 15 kts 28°
2026-04-22 19:21 53.34941 -2.27923 229 ft 18 kts 50°
2026-04-22 19:21 53.35036 -2.27729 229 ft 24 kts 51°
2026-04-22 19:22 53.35138 -2.27518 236 ft 23 kts 51°
2026-04-22 19:22 53.35236 -2.27313 237 ft 22 kts 51°
2026-04-22 19:22 53.35332 -2.27119 243 ft 21 kts 51°
2026-04-22 19:22 53.35425 -2.26926 249 ft 21 kts 47°
2026-04-22 19:23 53.35545 -2.26981 255 ft 20 kts 322°
2026-04-22 19:23 53.35654 -2.27127 256 ft 20 kts 320°
2026-04-22 19:23 53.35716 -2.27212 254 ft 7 kts 320°
2026-04-22 19:23 53.35758 -2.27268 254 ft 9 kts 323°
2026-04-22 19:24 53.35819 -2.27253 254 ft 11 kts 45°
2026-04-22 19:24 53.35879 -2.27216 254 ft 3 kts 24°
2026-04-22 19:24 53.35893 -2.27187 254 ft 3 kts 57°
2026-04-22 19:24 53.35905 -2.27151 254 ft 4 kts 63°
2026-04-22 19:25 53.35912 -2.27129 254 ft 0 kts 64°